Location: St Paul
(33.9360°N, 83.4200°W)
Time: 11:50:11
(UTC-04:00)

Lacrosse 5 rocket - Pass Details

Date: 06 October 2017
Orbit: 459 x 643 km, 57.0° (Epoch: 16 October)

Event Time Altitude Azimuth Distance (km) Brightness Sun altitude
Rises 20:32:46 0° 208° (SSW) 2,907 5.3 -17.8°
Reaches altitude 10° 20:35:07 10° 204° (SSW) 1,986 4.4 -18.3°
Maximum altitude 20:39:35 58° 126° (SE) 708 1.5 -19.2°
Enters shadow 20:40:35 45° 77° (ENE) 818 1.7 -19.4°
